FW7304 Weather Reports


time (UTC)temp
C
wind
direction
speed
KPH
gust
KPH
rain 1hr
cm
rain 24hr
cm
rain mn
cm
humidity
%
barometer
mb
20260507052902 16 247 17.7 19.3 0.00 0.00 0.00 31 1019.0
20260507052402 16 249 14.5 20.9 0.00 0.00 0.00 31 1018.9
20260507051902 15 256 11.3 20.9 0.00 0.00 0.00 31 1018.9
20260507051403 16 279 11.3 16.1 0.00 0.00 0.00 31 1018.9
20260507050903 16 253 19.3 25.7 0.00 0.00 0.00 30 1018.8
20260507050404 16 256 12.9 20.9 0.00 0.00 0.00 30 1018.8
20260507045902 16 223 20.9 24.1 0.00 0.00 0.00 30 1018.8
20260507044903 16 234 12.9 14.5 0.00 0.00 0.00 30 1018.7
20260507044403 16 253 11.3 19.3 0.00 0.00 0.00 30 1018.7
20260507043403 16 247 20.9 24.1 0.00 0.00 0.00 30 1018.5
20260507042904 16 264 12.9 22.5 0.00 0.00 0.00 30 1018.5
20260507042402 16 246 14.5 22.5 0.00 0.00 0.00 29 1018.5
20260507041903 16 245 16.1 24.1 0.00 0.00 0.00 29 1018.5
20260507041403 16 238 19.3 24.1 0.00 0.00 0.00 29 1018.3
20260507040902 16 238 22.5 33.8 0.00 0.00 0.00 29 1018.1
20260507040402 16 238 12.9 19.3 0.00 0.00 0.00 30 1018.2
20260507035903 16 218 14.5 19.3 0.00 0.00 0.00 30 1018.1
20260507035402 16 243 14.5 25.7 0.00 0.00 0.00 29 1018.2
20260507034904 16 213 14.5 16.1 0.00 0.00 0.00 29 1018.0
20260507033402 16 241 19.3 20.9 0.00 0.00 0.00 29 1018.0
20260507032902 16 237 16.1 19.3 0.00 0.00 0.00 29 1017.9
20260507031403 17 279 12.9 20.9 0.00 0.00 0.00 29 1017.6
20260507030904 17 231 19.3 29.0 0.00 0.00 0.00 28 1017.4
20260507030403 17 229 19.3 29.0 0.00 0.00 0.00 28 1017.3
20260507025904 17 222 14.5 20.9 0.00 0.00 0.00 28 1017.2
20260507025402 17 236 14.5 20.9 0.00 0.00 0.00 28 1017.1
20260507024903 17 229 20.9 25.7 0.00 0.00 0.00 28 1017.0
20260507024403 17 228 16.1 24.1 0.00 0.00 0.00 28 1017.0
20260507023903 17 239 30.6 37.0 0.00 0.00 0.00 27 1017.0
20260507022903 17 253 12.9 19.3 0.00 0.00 0.00 27 1016.9
20260507022402 17 227 14.5 19.3 0.00 0.00 0.00 27 1016.8
20260507021902 17 241 9.7 22.5 0.00 0.00 0.00 27 1016.9
20260507021402 17 233 12.9 22.5 0.00 0.00 0.00 27 1016.8
20260507020903 18 238 14.5 20.9 0.00 0.00 0.00 26 1016.7
20260507020404 18 265 9.7 19.3 0.00 0.00 0.00 26 1016.7
20260507015902 18 257 11.3 19.3 0.00 0.00 0.00 26 1016.7
20260507015403 18 234 16.1 16.1 0.00 0.00 0.00 25 1016.7
20260507014903 18 246 16.1 27.4 0.00 0.00 0.00 25 1016.7
20260507013903 19 231 12.9 14.5 0.00 0.00 0.00 25 1016.5
20260507013403 19 232 16.1 20.9 0.00 0.00 0.00 24 1016.5
20260507012904 19 232 9.7 12.9 0.00 0.00 0.00 24 1016.6
20260507012402 20 229 11.3 16.1 0.00 0.00 0.00 24 1016.6
20260507011902 20 242 12.9 20.9 0.00 0.00 0.00 23 1016.6
20260507011403 20 243 9.7 16.1 0.00 0.00 0.00 22 1016.6
20260507010902 20 247 11.3 12.9 0.00 0.00 0.00 22 1016.6
20260507010403 20 252 16.1 19.3 0.00 0.00 0.00 22 1016.6
20260507005903 20 229 8.0 16.1 0.00 0.00 0.00 22 1016.5
20260507004903 21 249 9.7 11.3 0.00 0.00 0.00 20 1016.5
20260507004403 21 266 11.3 16.1 0.00 0.00 0.00 21 1016.5
20260507003903 21 232 9.7 19.3 0.00 0.00 0.00 20 1016.5
20260507003403 21 268 14.5 20.9 0.00 0.00 0.00 20 1016.5
20260507002903 21 277 11.3 20.9 0.00 0.00 0.00 21 1016.3
20260507001903 21 268 11.3 16.1 0.00 0.00 0.00 21 1016.4
20260507001403 22 277 9.7 16.1 0.00 0.00 0.00 20 1016.4
20260507000903 22 253 9.7 16.1 0.00 0.00 0.00 20 1016.4
20260507000405 21 267 19.3 20.9 0.00 0.00 0.00 21 1016.3
20260506235903 22 285 14.5 19.3 0.00 0.00 0.00 20 1016.1
20260506235403 22 218 12.9 14.5 0.00 0.00 0.00 19 1016.1
20260506234903 22 219 6.4 14.5 0.00 0.00 0.00 19 1016.2
20260506234403 22 249 11.3 16.1 0.00 0.00 0.00 19 1016.2
20260506233402 22 258 9.7 11.3 0.00 0.00 0.00 20 1016.3
20260506232903 22 287 9.7 20.9 0.00 0.00 0.00 20 1016.3
20260506231903 22 263 8.0 16.1 0.00 0.00 0.00 20 1016.3
20260506230903 22 252 12.9 19.3 0.00 0.00 0.00 19 1016.3
20260506230403 22 258 11.3 24.1 0.00 0.00 0.00 20 1016.3
20260506225903 22 263 11.3 24.1 0.00 0.00 0.00 19 1016.4
20260506225404 22 253 14.5 19.3 0.00 0.00 0.00 19 1016.3
20260506224903 22 234 11.3 12.9 0.00 0.00 0.00 19 1016.3
20260506224402 22 231 9.7 11.3 0.00 0.00 0.00 20 1016.4
20260506223903 21 45 9.7 22.5 0.00 0.00 0.00 19 1016.4
20260506223403 22 316 16.1 22.5 0.00 0.00 0.00 20 1016.4
20260506222903 21 253 6.4 12.9 0.00 0.00 0.00 20 1016.5
20260506222403 21 261 16.1 19.3 0.00 0.00 0.00 20 1016.5
20260506221903 21 160 8.0 20.9 0.00 0.00 0.00 19 1016.5
20260506221403 22 3 14.5 16.1 0.00 0.00 0.00 18 1016.7
20260506220903 22 291 16.1 20.9 0.00 0.00 0.00 19 1016.7
20260506220403 22 280 9.7 11.3 0.00 0.00 0.00 20 1016.7
20260506215903 22 235 8.0 12.9 0.00 0.00 0.00 19 1016.8
20260506215404 22 283 14.5 16.1 0.00 0.00 0.00 19 1017.0
20260506214902 22 300 8.0 20.9 0.00 0.00 0.00 18 1016.9
20260506213902 21 151 8.0 14.5 0.00 0.00 0.00 20 1017.1
20260506213403 21 43 9.7 16.1 0.00 0.00 0.00 19 1017.1
20260506212904 21 39 11.3 24.1 0.00 0.00 0.00 19 1017.3
20260506212403 22 301 12.9 19.3 0.00 0.00 0.00 19 1017.4
20260506211403 21 286 11.3 16.1 0.00 0.00 0.00 20 1017.4
20260506210903 21 256 11.3 14.5 0.00 0.00 0.00 20 1017.4
20260506210404 21 327 14.5 19.3 0.00 0.00 0.00 19 1017.5
20260506205903 21 7 11.3 20.9 0.00 0.00 0.00 20 1017.6
20260506205404 21 77 16.1 19.3 0.00 0.00 0.00 19 1017.5
20260506204403 21 58 14.5 16.1 0.00 0.00 0.00 19 1017.7
20260506203903 21 299 16.1 27.4 0.00 0.00 0.00 20 1017.8
20260506203403 20 351 12.9 19.3 0.00 0.00 0.00 21 1017.7
20260506202903 20 19 12.9 14.5 0.00 0.00 0.00 21 1017.8
20260506202404 20 14 11.3 19.3 0.00 0.00 0.00 21 1017.9
20260506201902 19 172 11.3 14.5 0.00 0.00 0.00 21 1017.9
20260506200903 20 333 16.1 22.5 0.00 0.00 0.00 21 1018.0
20260506200403 20 334 9.7 12.9 0.00 0.00 0.00 21 1018.0
20260506195903 20 280 11.3 16.1 0.00 0.00 0.00 21 1018.1
20260506195404 20 287 12.9 14.5 0.00 0.00 0.00 22 1018.1
20260506194903 19 338 12.9 14.5 0.00 0.00 0.00 22 1018.2
20260506194403 20 319 8.0 16.1 0.00 0.00 0.00 21 1018.2
20260506193903 20 309 14.5 20.9 0.00 0.00 0.00 21 1018.3
20260506193403 20 321 9.7 14.5 0.00 0.00 0.00 22 1018.4
20260506192403 19 344 14.5 16.1 0.00 0.00 0.00 22 1018.3
20260506191903 19 342 19.3 24.1 0.00 0.00 0.00 22 1018.5
20260506191403 18 293 14.5 14.5 0.00 0.00 0.00 23 1018.4
20260506190904 18 327 16.1 16.1 0.00 0.00 0.00 23 1018.6
20260506190403 18 302 19.3 20.9 0.00 0.00 0.00 23 1018.5
20260506185903 18 309 16.1 24.1 0.00 0.00 0.00 23 1018.6
20260506185403 18 316 14.5 19.3 0.00 0.00 0.00 23 1018.6
20260506184904 18 318 8.0 11.3 0.00 0.00 0.00 22 1018.5
20260506184403 18 20 14.5 16.1 0.00 0.00 0.00 22 1018.6
20260506183903 18 325 11.3 14.5 0.00 0.00 0.00 22 1018.7
20260506183403 18 310 11.3 12.9 0.00 0.00 0.00 23 1018.7
20260506182903 17 14 16.1 16.1 0.00 0.00 0.00 22 1018.8
20260506182403 17 9 11.3 16.1 0.00 0.00 0.00 22 1018.8
20260506181903 18 332 9.7 9.7 0.00 0.00 0.00 22 1018.9
20260506181402 17 334 16.1 19.3 0.00 0.00 0.00 23 1018.8
20260506180903 17 295 11.3 16.1 0.00 0.00 0.00 23 1018.8
20260506180403 17 293 14.5 19.3 0.00 0.00 0.00 23 1018.7
20260506175903 16 26 11.3 14.5 0.00 0.00 0.00 23 1018.7
20260506173403 17 312 16.1 24.1 0.00 0.00 0.00 24 1018.8
20260506172903 16 355 11.3 24.1 0.00 0.00 0.00 24 1018.7
20260506172403 16 323 14.5 16.1 0.00 0.00 0.00 25 1018.7
20260506171403 16 347 11.3 12.9 0.00 0.00 0.00 26 1018.6
20260506170403 16 25 9.7 16.1 0.00 0.00 0.00 27 1018.6
20260506165903 16 1 14.5 16.1 0.00 0.00 0.00 27 1018.6
20260506165403 16 275 9.7 12.9 0.00 0.00 0.00 27 1018.5
20260506164902 15 27 9.7 12.9 0.00 0.00 0.00 28 1018.5
20260506164403 15 343 9.7 12.9 0.00 0.00 0.00 28 1018.5
20260506163903 15 278 6.4 12.9 0.00 0.00 0.00 29 1018.5
20260506163403 15 74 8.0 12.9 0.00 0.00 0.00 30 1018.5
20260506162904 15 20 3.2 12.9 0.00 0.00 0.00 30 1018.6
20260506161403 14 262 12.9 16.1 0.00 0.00 0.00 31 1018.4
20260506160903 14 291 11.3 11.3 0.00 0.00 0.00 31 1018.4
20260506160403 14 5 4.8 9.7 0.00 0.00 0.00 31 1018.4
20260506155903 14 315 9.7 14.5 0.00 0.00 0.00 30 1018.5
20260506155403 14 299 9.7 16.1 0.00 0.00 0.00 31 1018.5
20260506154903 14 292 8.0 11.3 0.00 0.00 0.00 32 1018.4
20260506154403 13 352 8.0 9.7 0.00 0.00 0.00 33 1018.3
20260506153404 13 324 11.3 12.9 0.00 0.00 0.00 36 1018.4
20260506152403 13 47 9.7 11.3 0.00 0.00 0.00 36 1018.2
20260506151903 12 9 8.0 11.3 0.00 0.00 0.00 36 1018.2
20260506151404 12 17 4.8 8.0 0.00 0.00 0.00 39 1018.3
20260506150403 12 88 4.8 4.8 0.00 0.00 0.00 39 1018.3
20260506145904 12 96 8.0 9.7 0.00 0.00 0.00 40 1018.2
20260506145402 11 46 4.8 8.0 0.00 0.00 0.00 41 1018.2
20260506144903 11 64 4.8 4.8 0.00 0.00 0.00 42 1018.2
20260506144403 11 23 4.8 4.8 0.00 0.00 0.00 43 1018.2
20260506143904 11 288 4.8 4.8 0.00 0.00 0.00 43 1018.2
20260506143403 10 322 3.2 4.8 0.00 0.00 0.00 44 1018.2
20260506142903 10 324 4.8 4.8 0.00 0.00 0.00 44 1018.2
20260506142404 10 18 4.8 4.8 0.00 0.00 0.00 46 1018.2
20260506141903 10 46 8.0 8.0 0.00 0.00 0.00 47 1018.2
20260506141403 10 28 4.8 4.8 0.00 0.00 0.00 47 1018.2
20260506140903 9 22 6.4 8.0 0.00 0.00 0.00 47 1018.1
20260506140403 9 217 1.6 1.6 0.00 0.00 0.00 49 1018.1
20260506135903 8 243 3.2 4.8 0.00 0.00 0.00 50 1018.0
20260506135404 8 202 3.2 3.2 0.00 0.00 0.00 51 1017.9
20260506134903 8 206 1.6 1.6 0.00 0.00 0.00 51 1017.9
20260506134402 7 266 3.2 3.2 0.00 0.00 0.00 53 1018.0
20260506133403 6 209 1.6 1.6 0.00 0.00 0.00 56 1017.8
20260506132903 6 206 1.6 1.6 0.00 0.00 0.00 58 1017.6
20260506132403 5 146 1.6 1.6 0.00 0.00 0.00 58 1017.5
20260506131902 4 249 0.0 1.6 0.00 0.00 0.00 61 1017.4
20260506131403 3 292 3.2 3.2 0.00 0.00 0.00 63 1017.2
20260506130903 3 154 1.6 4.8 0.00 0.00 0.00 64 1017.1
20260506130403 3 196 3.2 4.8 0.00 0.00 0.00 64 1017.1
20260506125903 2 174 3.2 3.2 0.00 0.00 0.00 65 1017.1
20260506125403 2 165 1.6 4.8 0.00 0.00 0.00 66 1017.1
20260506124903 2 184 3.2 3.2 0.00 0.00 0.00 67 1017.0
20260506124403 2 158 1.6 3.2 0.00 0.00 0.00 67 1017.0
20260506123903 2 117 1.6 3.2 0.00 0.00 0.00 65 1016.9
20260506123403 2 227 1.6 3.2 0.00 0.00 0.00 65 1016.8
20260506122903 2 185 1.6 1.6 0.00 0.00 0.00 65 1016.7
20260506122403 2 109 3.2 4.8 0.00 0.00 0.00 63 1016.6
20260506121903 2 137 3.2 3.2 0.00 0.00 0.00 63 1016.5
20260506121403 3 122 1.6 3.2 0.00 0.00 0.00 63 1016.5
20260506120903 3 95 4.8 4.8 0.00 0.00 0.00 63 1016.4
20260506120403 3 135 3.2 3.2 0.00 0.00 0.00 62 1016.4
20260506115904 3 117 3.2 3.2 0.00 0.00 0.00 61 1016.5
20260506114402 3 130 3.2 4.8 0.00 0.00 0.00 60 1016.6
20260506113904 4 97 3.2 3.2 0.00 0.00 0.00 58 1016.6
20260506113403 5 134 3.2 3.2 0.00 0.00 0.00 58 1016.6
20260506112903 5 115 3.2 3.2 0.00 0.00 0.00 57 1016.5
20260506112403 5 150 1.6 3.2 0.00 0.00 0.00 55 1016.5
20260506111403 5 312 3.2 4.8 0.00 0.00 0.00 58 1016.5
20260506110903 5 329 3.2 4.8 0.00 0.00 0.00 58 1016.5
20260506110403 4 274 4.8 8.0 0.00 0.00 0.00 63 1016.4
20260506105903 3 277 4.8 8.0 0.00 0.00 0.00 62 1016.4
20260506104903 3 272 1.6 3.2 0.00 0.00 0.00 63 1016.4
20260506104402 3 49 3.2 4.8 0.00 0.00 0.00 64 1016.2
20260506103404 2 178 3.2 4.8 0.00 0.00 0.00 63 1016.1
20260506102903 2 84 3.2 4.8 0.00 0.00 0.00 61 1016.0
20260506102404 3 123 4.8 4.8 0.00 0.00 0.00 62 1016.0
20260506101903 3 68 1.6 1.6 0.00 0.00 0.00 61 1016.0
20260506101402 3 97 1.6 3.2 0.00 0.00 0.00 59 1016.0
20260506100903 3 125 3.2 4.8 0.00 0.00 0.00 59 1016.0
20260506100403 4 143 4.8 4.8 0.00 0.00 0.00 58 1015.9
20260506095904 4 48 3.2 4.8 0.00 0.00 0.00 58 1016.0
20260506095404 5 42 3.2 8.0 0.00 0.00 0.00 56 1016.0
20260506094903 5 106 4.8 4.8 0.00 0.00 0.00 55 1016.1
20260506094404 5 125 4.8 4.8 0.00 0.00 0.00 53 1016.1
20260506093903 6 153 4.8 4.8 0.00 0.00 0.00 52 1016.1
20260506092903 7 154 3.2 4.8 0.00 0.00 0.00 49 1016.2
20260506092403 8 147 6.4 9.7 0.00 0.00 0.00 44 1016.1
20260506091904 8 262 8.0 9.7 0.00 0.00 0.00 48 1016.1
20260506091403 8 312 4.8 4.8 0.00 0.00 0.00 48 1016.0
20260506090403 8 266 8.0 9.7 0.00 0.00 0.00 48 1015.9
20260506085904 8 234 3.2 8.0 0.00 0.00 0.00 48 1015.9
20260506085403 8 227 4.8 8.0 0.00 0.00 0.00 48 1015.9
20260506084403 8 255 6.4 11.3 0.00 0.00 0.00 47 1015.9
20260506083903 8 247 8.0 9.7 0.00 0.00 0.00 47 1015.9
20260506083403 8 233 6.4 8.0 0.00 0.00 0.00 47 1015.9
20260506081903 9 240 4.8 4.8 0.00 0.00 0.00 46 1015.9
20260506081404 9 250 3.2 11.3 0.00 0.00 0.00 45 1015.9
20260506080903 9 223 9.7 12.9 0.00 0.00 0.00 45 1015.8
20260506080402 9 225 9.7 12.9 0.00 0.00 0.00 45 1015.9
20260506072403 9 248 3.2 9.7 0.00 0.00 0.00 44 1016.0
20260506071903 9 230 8.0 9.7 0.00 0.00 0.00 44 1015.9
20260506071403 9 210 4.8 8.0 0.00 0.00 0.00 44 1015.9
20260506070903 9 260 4.8 8.0 0.00 0.00 0.00 43 1015.9
20260506070404 9 235 6.4 8.0 0.00 0.00 0.00 43 1015.9
20260506062403 10 237 9.7 11.3 0.00 0.00 0.00 41 1015.6
20260506061403 10 240 4.8 8.0 0.00 0.00 0.00 42 1015.6
20260506060904 10 250 8.0 14.5 0.00 0.00 0.00 41 1015.6
20260506060403 9 225 4.8 4.8 0.00 0.00 0.00 42 1015.6